RYR76 EPKK-LIBD

Flight info

Callsign RYR76
Flight time N/A
Altitude 36000
Route BABKO M866 NIDOK DCT KREMI DCT PATAK DCT BAREB DCT NETKO DCT AIOSA DCT BANAV
Aircraft B738/M-SDE2E3FGHIRWXY/LB1

Departure

Time 2026-05-05 16:27
Airport Kraków John Paul II International Airport (EPKK)

Arrival

Time N/A
Airport Bari Karol Wojtyła International Airport (LIBD)
Time Latitude Longitude Altitude Speed Heading
2026-05-05 16:05 50.07505 19.80271 799 ft 0 kts 168°
2026-05-05 16:23 50.07461 19.80287 799 ft 9 kts 160°
2026-05-05 16:24 50.07449 19.80352 799 ft 7 kts 58°
2026-05-05 16:24 50.07503 19.80393 799 ft 10 kts 17°
2026-05-05 16:24 50.07680 19.80391 799 ft 15 kts 348°
2026-05-05 16:25 50.07785 19.80357 799 ft 15 kts 347°
2026-05-05 16:25 50.07827 19.80342 799 ft 0 kts 348°
2026-05-05 16:25 50.07842 19.80337 799 ft 11 kts 348°
2026-05-05 16:26 50.08005 19.80145 800 ft 26 kts 258°
2026-05-05 16:26 50.07697 19.77950 885 ft 166 kts 257°
2026-05-05 16:27 50.07435 19.76130 1559 ft 180 kts 256°
2026-05-05 16:27 50.07161 19.74248 2547 ft 182 kts 254°
2026-05-05 16:27 50.06869 19.72188 3140 ft 204 kts 255°
2026-05-05 16:27 50.06549 19.69916 3417 ft 225 kts 255°
2026-05-05 16:28 50.06058 19.67591 4026 ft 227 kts 236°
2026-05-05 16:28 50.04904 19.65895 4622 ft 233 kts 211°
2026-05-05 16:28 50.03391 19.64902 5297 ft 242 kts 193°
2026-05-05 16:28 50.01693 19.64827 6059 ft 251 kts 173°
2026-05-05 16:29 49.99936 19.65483 6648 ft 264 kts 168°
2026-05-05 16:29 49.98175 19.66185 7572 ft 261 kts 174°
2026-05-05 16:29 49.96353 19.65911 8073 ft 268 kts 202°
2026-05-05 16:29 49.94654 19.64773 9007 ft 265 kts 205°
2026-05-05 16:30 49.92942 19.63696 9852 ft 266 kts 202°
2026-05-05 16:30 49.91156 19.62656 10254 ft 285 kts 201°
2026-05-05 16:30 49.89211 19.61572 10434 ft 309 kts 200°
2026-05-05 16:30 49.87115 19.60436 10779 ft 325 kts 200°
2026-05-05 16:31 49.84946 19.59280 11435 ft 331 kts 200°
2026-05-05 16:31 49.82766 19.58131 12266 ft 331 kts 200°
2026-05-05 16:31 49.80604 19.56998 13036 ft 334 kts 200°
2026-05-05 16:31 49.78479 19.55887 13735 ft 337 kts 200°
2026-05-05 16:32 49.76240 19.54718 14419 ft 340 kts 200°
2026-05-05 16:32 49.73990 19.53546 15050 ft 344 kts 200°
2026-05-05 16:32 49.71703 19.52355 15677 ft 348 kts 199°
2026-05-05 16:32 49.69399 19.51154 16340 ft 351 kts 199°
2026-05-05 16:33 49.67076 19.49948 16987 ft 354 kts 199°
2026-05-05 16:33 49.64728 19.48730 17586 ft 359 kts 199°
2026-05-05 16:33 49.62371 19.47508 18222 ft 361 kts 200°
2026-05-05 16:33 49.60022 19.45958 18704 ft 366 kts 209°
2026-05-05 16:34 49.57840 19.44033 19301 ft 367 kts 211°
2026-05-05 16:34 49.55590 19.42114 19760 ft 373 kts 205°
2026-05-05 16:34 49.53111 19.40818 20254 ft 378 kts 194°
2026-05-05 16:34 49.50497 19.40167 20793 ft 382 kts 189°
2026-05-05 16:35 49.47840 19.39657 21246 ft 387 kts 189°
2026-05-05 16:35 49.45158 19.39162 21797 ft 389 kts 188°
2026-05-05 16:35 49.42456 19.38662 22273 ft 393 kts 189°
2026-05-05 16:35 49.39717 19.38145 22656 ft 399 kts 189°
2026-05-05 16:36 49.36965 19.37614 23233 ft 400 kts 189°
2026-05-05 16:36 49.34184 19.37074 23616 ft 405 kts 189°
2026-05-05 16:36 49.31379 19.36528 23981 ft 408 kts 189°
2026-05-05 16:36 49.28556 19.35977 24418 ft 409 kts 189°
2026-05-05 16:37 49.25723 19.35421 24803 ft 412 kts 189°
2026-05-05 16:37 49.22899 19.34865 25177 ft 415 kts 189°
2026-05-05 16:37 49.20028 19.34302 25562 ft 417 kts 189°
2026-05-05 16:37 49.17135 19.33735 25925 ft 420 kts 189°
2026-05-05 16:38 49.14230 19.33166 26304 ft 422 kts 189°
2026-05-05 16:38 49.11306 19.32595 26672 ft 425 kts 189°
2026-05-05 16:38 49.08362 19.32020 27001 ft 428 kts 189°
2026-05-05 16:38 49.05401 19.31443 27378 ft 429 kts 189°
2026-05-05 16:39 49.02431 19.30865 27715 ft 432 kts 189°
2026-05-05 16:39 48.99433 19.30283 28032 ft 435 kts 189°
2026-05-05 16:39 48.96420 19.29697 28380 ft 437 kts 189°
2026-05-05 16:39 48.93396 19.29110 28711 ft 439 kts 189°
2026-05-05 16:40 48.90351 19.28519 29033 ft 441 kts 189°
2026-05-05 16:40 48.87290 19.27927 29288 ft 445 kts 189°
2026-05-05 16:40 48.84216 19.27332 29566 ft 447 kts 189°
2026-05-05 16:40 48.81124 19.26735 29844 ft 449 kts 189°
2026-05-05 16:41 48.78019 19.26137 30205 ft 448 kts 189°
2026-05-05 16:41 48.74929 19.25543 30578 ft 447 kts 189°
2026-05-05 16:41 48.71846 19.24951 30925 ft 446 kts 189°
2026-05-05 16:41 48.68763 19.24360 31223 ft 447 kts 189°
2026-05-05 16:42 48.65684 19.23769 31531 ft 446 kts 189°
2026-05-05 16:42 48.62603 19.23179 31868 ft 445 kts 189°
2026-05-05 16:42 48.59528 19.22590 32201 ft 445 kts 189°
2026-05-05 16:42 48.56452 19.22002 32471 ft 445 kts 189°
2026-05-05 16:43 48.53378 19.21415 32761 ft 445 kts 189°
2026-05-05 16:43 48.50305 19.20828 33086 ft 444 kts 189°
2026-05-05 16:43 48.47240 19.20244 33405 ft 444 kts 189°
2026-05-05 16:43 48.44173 19.19661 33668 ft 444 kts 189°
2026-05-05 16:44 48.41148 19.19086 33942 ft 444 kts 189°
2026-05-05 16:44 48.38089 19.18506 34209 ft 443 kts 189°
2026-05-05 16:44 48.35030 19.17925 34425 ft 443 kts 189°
2026-05-05 16:44 48.31965 19.17345 34622 ft 444 kts 189°
2026-05-05 16:45 48.28897 19.16765 34835 ft 444 kts 189°
2026-05-05 16:45 48.25832 19.16187 35075 ft 443 kts 189°
2026-05-05 16:45 48.22840 19.15623 35283 ft 443 kts 189°
2026-05-05 16:45 48.19781 19.15046 35475 ft 444 kts 189°
2026-05-05 16:46 48.16711 19.14468 35665 ft 444 kts 189°
2026-05-05 16:46 48.13646 19.13891 35878 ft 443 kts 189°
2026-05-05 16:46 48.07505 19.12733 35900 ft 446 kts 190°
2026-05-05 16:47 48.01432 19.10987 35907 ft 443 kts 194°
2026-05-05 16:47 47.95412 19.08986 35899 ft 443 kts 194°
2026-05-05 16:48 47.90405 19.07331 35905 ft 443 kts 194°
2026-05-05 16:48 47.84839 19.05532 35897 ft 442 kts 194°
2026-05-05 16:49 47.78817 19.03614 35899 ft 442 kts 194°
2026-05-05 16:49 47.72999 19.01771 35899 ft 442 kts 194°
2026-05-05 16:50 47.67320 18.99976 35904 ft 443 kts 194°
2026-05-05 16:50 47.61289 18.98074 35903 ft 444 kts 193°
2026-05-05 16:51 47.55241 18.96172 35908 ft 445 kts 193°
2026-05-05 16:51 47.49214 18.94280 35913 ft 446 kts 193°
2026-05-05 16:52 47.43141 18.92378 35905 ft 447 kts 193°
2026-05-05 16:52 47.37051 18.90474 35908 ft 447 kts 193°
2026-05-05 16:53 47.30954 18.88573 35912 ft 448 kts 193°
2026-05-05 16:53 47.24850 18.86675 35915 ft 448 kts 193°
2026-05-05 16:54 47.18736 18.84778 35917 ft 449 kts 193°
2026-05-05 16:54 47.12626 18.82886 35915 ft 449 kts 193°
2026-05-05 16:55 47.06513 18.80998 35918 ft 448 kts 193°
2026-05-05 16:55 47.00443 18.79128 35919 ft 448 kts 193°
2026-05-05 16:56 46.94330 18.77249 35922 ft 448 kts 193°
2026-05-05 16:56 46.88228 18.75378 35921 ft 448 kts 193°
2026-05-05 16:57 46.83116 18.73813 35923 ft 448 kts 193°
2026-05-05 16:57 46.77049 18.71961 35921 ft 448 kts 193°
2026-05-05 16:58 46.70947 18.70101 35922 ft 448 kts 193°
2026-05-05 16:58 46.64836 18.68244 35924 ft 448 kts 193°
2026-05-05 16:59 46.58735 18.66393 35927 ft 448 kts 193°
2026-05-05 16:59 46.52623 18.64544 35923 ft 449 kts 193°
2026-05-05 17:00 46.46494 18.62694 35926 ft 449 kts 193°
2026-05-05 17:00 46.40373 18.60851 35928 ft 449 kts 193°
2026-05-05 17:01 46.34245 18.59009 35928 ft 450 kts 193°
2026-05-05 17:01 46.28143 18.57179 35930 ft 451 kts 193°
2026-05-05 17:02 46.21996 18.55341 35933 ft 451 kts 193°
2026-05-05 17:02 46.15843 18.53504 35931 ft 452 kts 193°
2026-05-05 17:03 46.09682 18.51670 35932 ft 452 kts 193°
2026-05-05 17:03 46.03513 18.49837 35937 ft 452 kts 193°
2026-05-05 17:04 45.97345 18.48009 35938 ft 452 kts 193°
2026-05-05 17:04 45.91180 18.46185 35938 ft 453 kts 193°
2026-05-05 17:05 45.85009 18.44364 35934 ft 452 kts 193°
2026-05-05 17:05 45.78849 18.42550 35943 ft 452 kts 193°
2026-05-05 17:06 45.72695 18.40743 35934 ft 451 kts 193°
2026-05-05 17:06 45.66538 18.38954 35941 ft 451 kts 193°
2026-05-05 17:07 45.60426 18.37185 35936 ft 451 kts 193°
2026-05-05 17:07 45.54275 18.35406 35939 ft 451 kts 193°
2026-05-05 17:08 45.48119 18.33629 35935 ft 451 kts 193°
2026-05-05 17:08 45.41958 18.31854 35936 ft 451 kts 193°
2026-05-05 17:09 45.35801 18.30083 35939 ft 451 kts 193°
2026-05-05 17:09 45.29639 18.28316 35942 ft 452 kts 193°
2026-05-05 17:10 45.23478 18.26552 35940 ft 452 kts 193°
2026-05-05 17:10 45.17313 18.24791 35941 ft 452 kts 193°
2026-05-05 17:11 45.11145 18.23034 35940 ft 452 kts 193°
2026-05-05 17:11 45.04976 18.21280 35946 ft 453 kts 193°